"Pseudo-MPEC" for ST25E25

Created 2025 Jun 17 14:35:05 UT using Find_Orb

Click here for an explanation of pseudo-MPECs

 
 Astrometry: 
     ST25E25* C2025 05 31.23981914 24 35.474+15 55 51.01   ~5VEl 19.4 GVNEOCPU68
     ST25E25  C2025 05 31.24359914 24 35.461+15 55 43.62   ~5VEl 19.4 GVNEOCPU68
     ST25E25  C2025 05 31.26017414 24 35.682+15 55 22.30   ~5VEl 19.6 GVNEOCPU68
     ST25E25  C2025 05 31.26395514 24 35.660+15 55 15.43   ~5VEl 19.6 GVNEOCPU68

Station data:
(U68) JPL SynTrack Robotic Telescope, Auberry  (N37.070387 W119.412990)
   US/California.  Observers N. Saini, C. Zhai, R. Trahan, M. Zhan, M. Shao.
   0.28-m f/2.2 Schmidt + CCD.

Orbital elements:  ST25E25
   Perihelion 2025 Feb 28.43242 +/- 52.6 TT = 10:22:40 (JD 2460734.93242)
Epoch 2025 May 31.0 TT = JDT 2460826.5   Earth MOID: 0.2211      AutoNEOCP
M  54.09707122 +/- 43               (J2000 ecliptic)
n   0.59078846 +/- 0.392            Peri.   29.19399 +/- 100
a   1.40663486 +/- 0.622            Node   140.94597 +/- 52
e   0.1446824 +/- 0.188             Incl.    8.43533 +/- 5.9
P   1.668/609.344d         H 19.73  G  0.15   U 12.1  SR
q 1.20311954 +/- 0.391    Q 1.61015018 +/- 2.05
From 4 observations 2025 May 31 (34.8 min); mean residual 0".71
Residuals in arcseconds: 
250531 U68  .30+  .86+    250531 U68  .48+  .93+    
250531 U68  .41-  1.2-    250531 U68  .36-  .58-    

Ephemerides (geocentric):
Date (UTC) HH   RA             Dec           delta  r     elong  mag " sig PA
---- --------  ------------   ------------  ------ ------ -----  --- --------
2025 06 17 15  14 35 03.420   +08 42 33.07  .48219 1.3451 123.8 20.3  28d  74
2025 06 17 16  14 35 05.646   +08 41 29.21  .48242 1.3452 123.8 20.3  28d  74
2025 06 17 17  14 35 07.874   +08 40 25.36  .48264 1.3453 123.7 20.3  28d  74
2025 06 17 18  14 35 10.106   +08 39 21.51  .48287 1.3454 123.7 20.3  28d  74
2025 06 17 19  14 35 12.341   +08 38 17.65  .48310 1.3455 123.7 20.3  28d  74
2025 06 17 20  14 35 14.579   +08 37 13.80  .48332 1.3456 123.7 20.3  28d  74
2025 06 17 21  14 35 16.821   +08 36 09.95  .48355 1.3457 123.7 20.3  29d  74
2025 06 17 22  14 35 19.065   +08 35 06.09  .48377 1.3457 123.7 20.4  29d  74
2025 06 17 23  14 35 21.312   +08 34 02.24  .48400 1.3458 123.6 20.4  29d  74
2025 06 18 00  14 35 23.563   +08 32 58.39  .48423 1.3459 123.6 20.4  29d  74
2025 06 18 01  14 35 25.817   +08 31 54.54  .48446 1.3460 123.6 20.4  29d  74
2025 06 18 02  14 35 28.074   +08 30 50.69  .48468 1.3461 123.6 20.4  29d  74
2025 06 18 03  14 35 30.334   +08 29 46.84  .48491 1.3462 123.6 20.4  29d  74
2025 06 18 04  14 35 32.597   +08 28 42.99  .48514 1.3463 123.6 20.4  29d  74
2025 06 18 05  14 35 34.863   +08 27 39.14  .48536 1.3464 123.5 20.4  29d  74
2025 06 18 06  14 35 37.132   +08 26 35.29  .48559 1.3464 123.5 20.4  29d  74
2025 06 18 07  14 35 39.405   +08 25 31.44  .48582 1.3465 123.5 20.4  29d  74
2025 06 18 08  14 35 41.681   +08 24 27.59  .48605 1.3466 123.5 20.4  29d  74
2025 06 18 09  14 35 43.959   +08 23 23.75  .48627 1.3467 123.5 20.4  29d  75
2025 06 18 10  14 35 46.241   +08 22 19.90  .48650 1.3468 123.5 20.4  29d  75
2025 06 18 11  14 35 48.526   +08 21 16.06  .48673 1.3469 123.4 20.4  29d  75
2025 06 18 12  14 35 50.814   +08 20 12.21  .48696 1.3470 123.4 20.4  29d  75
2025 06 18 13  14 35 53.105   +08 19 08.37  .48719 1.3471 123.4 20.4  29d  75
2025 06 18 14  14 35 55.400   +08 18 04.53  .48742 1.3471 123.4 20.4  29d  75
2025 06 18 15  14 35 57.697   +08 17 00.69  .48764 1.3472 123.4 20.4  29d  75
2025 06 18 16  14 35 59.997   +08 15 56.85  .48787 1.3473 123.3 20.4  29d  75
2025 06 18 17  14 36 02.301   +08 14 53.01  .48810 1.3474 123.3 20.4  30d  75
2025 06 18 18  14 36 04.608   +08 13 49.17  .48833 1.3475 123.3 20.4  30d  75
2025 06 18 19  14 36 06.917   +08 12 45.33  .48856 1.3476 123.3 20.4  30d  75
2025 06 18 20  14 36 09.230   +08 11 41.50  .48879 1.3477 123.3 20.4  30d  75
2025 06 18 21  14 36 11.546   +08 10 37.67  .48902 1.3478 123.3 20.4  30d  75
2025 06 18 22  14 36 13.865   +08 09 33.83  .48925 1.3478 123.2 20.4  30d  75
2025 06 18 23  14 36 16.188   +08 08 30.00  .48948 1.3479 123.2 20.4  30d  75
2025 06 19 00  14 36 18.513   +08 07 26.17  .48971 1.3480 123.2 20.4  30d  75
2025 06 19 01  14 36 20.841   +08 06 22.34  .48994 1.3481 123.2 20.4  30d  75
2025 06 19 02  14 36 23.173   +08 05 18.52  .49017 1.3482 123.2 20.4  30d  75
2025 06 19 03  14 36 25.507   +08 04 14.69  .49040 1.3483 123.2 20.4  30d  75
2025 06 19 04  14 36 27.845   +08 03 10.86  .49063 1.3484 123.1 20.4  30d  75
2025 06 19 05  14 36 30.186   +08 02 07.04  .49086 1.3485 123.1 20.4  30d  75
2025 06 19 06  14 36 32.529   +08 01 03.22  .49109 1.3485 123.1 20.4  30d  75
2025 06 19 07  14 36 34.876   +07 59 59.40  .49132 1.3486 123.1 20.4  30d  75
2025 06 19 08  14 36 37.226   +07 58 55.58  .49155 1.3487 123.1 20.4  30d  75
2025 06 19 09  14 36 39.579   +07 57 51.77  .49178 1.3488 123.0 20.4  30d  75
2025 06 19 10  14 36 41.935   +07 56 47.95  .49201 1.3489 123.0 20.4  30d  75
2025 06 19 11  14 36 44.294   +07 55 44.14  .49224 1.3490 123.0 20.4  30d  75
2025 06 19 12  14 36 46.657   +07 54 40.33  .49247 1.3491 123.0 20.4  30d  75
2025 06 19 13  14 36 49.022   +07 53 36.52  .49270 1.3491 123.0 20.4  30d  75
2025 06 19 14  14 36 51.390   +07 52 32.71  .49293 1.3492 123.0 20.4  30d  75